← OPERATOR NAME NOT ON FILE

Permit History (all operated wells)

Show:
50891 permits
SourcePermitAPITypeLeaseCountyIssuedFrom/To
50872742-459-31061DRILLSEIF-ROBERSONUPSHUR2001-05-14from: WINCHESTER PRODUCTION COMPANY
50872842-253-34548DRILLFLOYD, JACK ET ALJONES2001-05-14from: FRANKLIN & WHITESIDE
50899542-175-33350DRILLLOTT, J. F.GOLIAD2001-05-14from: LIGHTNING OIL CO.
50856542-363-35015DRILLMCAMIS, A. J.PALO PINTO2001-05-14from: LMG OPERATING COMPANY, INC.
50895542-263-31685DRILLSTINSONKENT2001-05-14from: PATTON EXPLORATION, INC.
50886842-261-31270DRILLKMF 107KENEDY2001-05-14from: U.S. ENERCORP, LLC
50888542-473-30648DRILLLEWIS ET ALWALLER2001-05-11from: ESCONDIDO PETROLEUM COMPANY, INC
50885642-025-33123DRILLJOHNSTONBEE2001-05-11from: HUGHES, DAN A. COMPANY
50888642-249-32397DRILLSHARPEJIM WELLS2001-05-11from: ELLSWORTH, H. P. O&G PROPERTIES
50871842-461-34184DRILLMANN "28"UPTON2001-05-10from: EOG RESOURCES, INC.
50864242-461-34179DRILLUNIVERSITY 4 "16" HUPTON2001-05-10from: NEARBURG PRODUCING COMPANY
50880042-481-34353DRILLWENDELWHARTON2001-05-10from: PURE RESOURCES, L.P.
50876842-427-33366DRILLMARGOSTARR2001-05-10from: EDGE PETROLEUM OPER. CO., INC.
50876142-413-32126DRILLMCNEALY, D. O.SCHLEICHER2001-05-10from: BAYSHORE EXPLORATION LLC
50862442-123-31909DRILLBRUSHY CREEK GAS UNITDE WITT2001-05-10from: BROWN, GEORGE R. PARTNERSHIP,THE
50845242-305-00040RENTRTAHOKA LAKELYNN2001-05-08from: LONE STAR OIL & GAS
50776642-413-32124DRILLKEELINGSCHLEICHER2001-05-08from: PATTON, E. N. OIL CO., INC.
50866142-323-32587DRILLCHITTIM "B"MAVERICK2001-05-08from: EXPLORATION COMPANY, THE
50858742-165-35738DRILLM. S. DOSSGAINES2001-05-07from: MARALO, LLC
50862142-427-33363DRILLSLICK 539STARR2001-05-07from: TEXAS INDEPENDENT EXPLOR., INC.
50857342-501-34570DRILLARCO-EVANSYOAKUM2001-05-07from: TEXLAND PETROLEUM INC.
50859642-291-32393DRILLQUINNLIBERTY2001-05-07from: HOLLIMON OIL CORPORATION
50856642-245-32294DRILLMCDERMANDJEFFERSON2001-05-07from: HELMERICH & PAYNE, INC.
50860342-487-32440DRILLWAGGONER, W. T. ESTATEWILBARGER2001-05-07from: GONZENBACH, GLEN D
50863342-285-32884DRILLKUESTERLAVACA2001-05-07from: BIG LAKE CORPORATION
50856242-503-41086DRILLROGERSYOUNG2001-05-07from: ROGERS DRILLING CO.
50854942-435-35491DRILLMECKELSUTTON2001-05-04from: BURLINGTON RESOURCES O & G CO LP
50859042-367-33375DRILLGANKYPARKER2001-05-04from: WESTRIDGE OIL & GAS PROPERTIES
50835042-199-32841DRILLCARPENTER CORPORATIONHARDIN2001-05-04from: BLACK STONE ENERGY COMPANY
50851542-073-31000DRILLTEMPLE - INLAND "D"CHEROKEE2001-05-03from: EOG RESOURCES, INC.
50829542-165-35736DRILLREEDGAINES2001-05-03from: BEACH EXPLORATION, INC.
50853642-249-00234RENTRKNOLLE, C. E.JIM WELLS2001-05-03from: CHOICE EXPLORATION, INC.
50843342-215-32890DRILLMALONE GAS UNITHIDALGO2001-05-02from: DEWBRE PETROLEUM CORPORATION
50839542-025-33119DRILLROCHE ABEE2001-05-02from: C & E OPERATING, INC.
50844442-479-37799DRILLHEIN TRUST BWEBB2001-05-02from: CONOCO INC.
50823842-207-32450DRILLMEDFORD, J.HASKELL2001-05-02from: MATHIS & SONS, INC.
50702842-105-38609DRILLPIERCE, J. S. 8ACROCKETT2001-05-01from: PIONEER NATURAL RES. USA, INC.
50820242-297-34436DRILLROLLINS RANCHLIVE OAK2001-04-30from: FIRST ROCK, INC.
50835842-321-31880DRILLCCGUMATAGORDA2001-04-30from: TRI-C RESOURCES, INC.
50835542-451-32439DRILLOZZIETOM GREEN2001-04-30from: BULLDOG OPERATING COMPANY
50820442-297-34437DRILLROLLINS RANCHLIVE OAK2001-04-30from: FIRST ROCK, INC.
50832242-469-33583DRILLBRAMAN, D. H.VICTORIA2001-04-30from: CUMMINS & WALKER OIL CO., INC.
50835942-151-32568DRILLDUNCANFISHER2001-04-30from: SHARP IMAGE ENERGY, INC.
50820342-297-34435DRILLROLLINS RANCHLIVE OAK2001-04-30from: FIRST ROCK, INC.
50810042-441-34006DRILLTHORNTON, E. L.TAYLOR2001-04-27from: GRAY OIL & GAS INC.
50828542-239-33127DRILLDOLESH, MINTAJACKSON2001-04-27from: GCEA, LLC
50824042-157-32149DRILLSHARP CORPORATIONFORT BEND2001-04-27from: BASS ENTERPRISES PRODUCTION CO.
50819442-115-33075DRILLWRISTENDAWSON2001-04-27from: GIFFORD OPERATING COMPANY
50827242-321-31879DRILLGREENMATAGORDA2001-04-27from: TRI-C RESOURCES, INC.
50809942-247-32205DRILLWEILJIM HOGG2001-04-27from: AMERICAN SHORELINE, INC.
page 314 of 1018
Live © 2026 Petrora